Tracking 29892 objects as of 21-Nov-2024
HD Live streaming from Space Station
objects crossing your sky now

STARLINK-4205

Track STARLINK-4205 now!
10-day predictions
STARLINK-4205 is classified as:


NORAD ID: 53174
Int'l Code: 2022-083AU
Perigee: 546.1 km
Apogee: 547.7 km
Inclination: 53.2 °
Period: 95.4 minutes
Semi major axis: 6917 km
RCS: Unknown
Launch date: July 17, 2022
Source: United States (US)
Launch site: AIR FORCE EASTERN TEST RANGE (AFETR)
Your satellite tracking list
Your tracking list is empty




NASA's NSSDC Master Catalog

Two Line Element Set (TLE):
1 53174U 22083AU  24324.74534663 -.00000136  00000-0  95290-5 0  9999
2 53174  53.2163 146.1611 0001155  94.3105 265.8020 15.08832630130155
Source of the keplerian elements: AFSPC